Decorah, IA

6:40 PM CST on January 18, 2018 (GMT -0600)
Decorah Municipal

Weather History for KDEH - September, 2013

Change the Weather History Date:

Thursday, September 26, 2013

  Actual Average Record
Temperature  
Mean Temperature 64 °F -  
Max Temperature 78 °F 69 °F 91 °F (1998)
Min Temperature 51 °F 44 °F 29 °F (1984)
Growing Degree Days 14 (Base 50)    
Moisture  
Dew Point 54 °F    
Average Humidity 72    
Maximum Humidity 94    
Minimum Humidity 51    
Precipitation  
Precipitation 0.00 in - - ()
Sea Level Pressure  
Sea Level Pressure 29.98 in    
Wind  
Wind Speed 9 mph (SE)    
Max Wind Speed 15 mph    
Max Gust Speed 25 mph    
Visibility 10 miles    
Events      
Averages and records for this station are not official NWS values.
T = Trace of Precipitation, MM = Missing Value Source: NWS Daily Summary

Daily Weather History Graph

Daily Weather History Graph

Search for Another Location

Airport or City:

Trip Planner

Search our weather history database for the weather conditions in past years. The results will help you decide how hot, cold, wet, or windy it might be!

Date:

Astronomy

Sep. 26, 2013 Rise Set
Actual Time 6:59 AM CDT 6:56 PM CDT
Civil Twilight 6:30 AM CDT 7:24 PM CDT
Nautical Twilight 5:57 AM CDT 7:58 PM CDT
Astronomical Twilight 5:23 AM CDT 8:31 PM CDT
Moon 11:46 PM CDT (9/26) 1:59 PM CDT (9/26)
Length of Visible Light 12h 54m
Length of Day
11h 57m
Waning Gibbous, 54% of the Moon is Illuminated
Sep 26
Waning Gibbous
Sep 26
Last Quarter
Oct 4
New
Oct 11
First Quarter
Oct 18
Full

Hourly Weather History & Observations

Time (CDT) Temp. Dew Point Humidity Pressure Visibility Wind Dir Wind Speed Gust Speed Precip Events Conditions
12:15 AM 57.2 °F 51.8 °F 82% 29.95 in 10.0 mi SE 9.2 mph - N/A   Partly Cloudy
12:35 AM 57.2 °F 50.0 °F 77% 29.95 in 10.0 mi SE 10.4 mph - N/A   Clear
12:55 AM 57.2 °F 50.0 °F 77% 29.95 in 10.0 mi SE 10.4 mph - N/A   Clear
1:15 AM 55.4 °F 50.0 °F 82% 29.96 in 10.0 mi SE 9.2 mph 16.1 mph N/A   Mostly Cloudy
1:35 AM 55.4 °F 50.0 °F 82% 29.96 in 10.0 mi SE 8.1 mph 16.1 mph N/A   Overcast
1:55 AM 55.4 °F 50.0 °F 82% 29.97 in 10.0 mi SE 9.2 mph 17.3 mph N/A   Overcast
2:15 AM 53.6 °F 50.0 °F 88% 29.97 in 10.0 mi SE 9.2 mph 17.3 mph N/A   Mostly Cloudy
2:35 AM 53.6 °F 50.0 °F 88% 29.98 in 10.0 mi SE 6.9 mph 15.0 mph N/A   Mostly Cloudy
2:55 AM 53.6 °F 48.2 °F 82% 29.97 in 10.0 mi Variable 6.9 mph - N/A   Scattered Clouds
3:15 AM 53.6 °F 48.2 °F 82% 29.98 in 10.0 mi Variable 5.8 mph 13.8 mph N/A   Scattered Clouds
3:35 AM 53.6 °F 48.2 °F 82% 29.98 in 10.0 mi SE 6.9 mph - N/A   Light Drizzle
3:55 AM 53.6 °F 48.2 °F 82% 29.98 in 10.0 mi SE 4.6 mph - N/A   Light Drizzle
4:15 AM 53.6 °F 48.2 °F 82% 29.98 in 10.0 mi SE 8.1 mph - N/A   Light Drizzle
4:35 AM 53.6 °F 48.2 °F 82% 29.99 in - SE 8.1 mph - N/A   Mostly Cloudy
4:55 AM 51.8 °F 48.2 °F 88% 29.99 in 10.0 mi SE 6.9 mph - N/A   Scattered Clouds
5:15 AM 51.8 °F 48.2 °F 88% 29.99 in 10.0 mi SE 8.1 mph - N/A   Light Drizzle
5:35 AM 51.8 °F 48.2 °F 88% 29.99 in 10.0 mi SE 8.1 mph 13.8 mph N/A   Light Drizzle
5:55 AM 51.8 °F 48.2 °F 88% 29.99 in 9.0 mi SE 5.8 mph 12.7 mph N/A   Light Drizzle
6:15 AM 51.8 °F 48.2 °F 88% 29.99 in 8.0 mi Variable 5.8 mph 12.7 mph N/A   Light Drizzle
6:35 AM 51.8 °F 48.2 °F 88% 29.99 in 8.0 mi Variable 4.6 mph - N/A   Mostly Cloudy
6:55 AM 51.8 °F 48.2 °F 88% 29.99 in 7.0 mi Variable 4.6 mph - N/A   Scattered Clouds
7:15 AM 51.8 °F 48.2 °F 88% 29.99 in 5.0 mi Variable 5.8 mph - N/A   Clear
7:35 AM 51.8 °F 50.0 °F 94% 30.00 in 6.0 mi SE 5.8 mph 12.7 mph N/A   Clear
7:55 AM 53.6 °F 50.0 °F 88% 30.00 in 6.0 mi SE 6.9 mph - N/A   Clear
8:15 AM 53.6 °F 50.0 °F 88% 30.00 in 7.0 mi ESE 9.2 mph 16.1 mph N/A   Partly Cloudy
8:35 AM 55.4 °F 50.0 °F 82% 29.99 in 8.0 mi ESE 11.5 mph 18.4 mph N/A   Clear
8:55 AM 57.2 °F 51.8 °F 82% 30.00 in 9.0 mi SE 8.1 mph - N/A   Clear
9:15 AM 59.0 °F 51.8 °F 77% 30.00 in 9.0 mi SE 10.4 mph 16.1 mph N/A   Clear
9:35 AM 60.8 °F 51.8 °F 72% 30.00 in 10.0 mi SSE 8.1 mph - N/A   Clear
9:55 AM 62.6 °F 53.6 °F 72% 30.00 in 9.0 mi Variable 6.9 mph 12.7 mph N/A   Clear
10:15 AM 64.4 °F 53.6 °F 68% 30.00 in 10.0 mi SE 9.2 mph - N/A   Clear
10:35 AM 66.2 °F 55.4 °F 68% 30.00 in 10.0 mi SSE 9.2 mph 16.1 mph N/A   Clear
10:55 AM 68.0 °F 55.4 °F 64% 30.00 in 10.0 mi SE 8.1 mph 15.0 mph N/A   Clear
11:15 AM 68.0 °F 55.4 °F 64% 29.99 in 10.0 mi SE 8.1 mph 16.1 mph N/A   Clear
11:35 AM 69.8 °F 57.2 °F 64% 30.00 in 10.0 mi SE 10.4 mph 17.3 mph N/A   Clear
11:55 AM 71.6 °F 57.2 °F 60% 30.00 in 10.0 mi SE 9.2 mph 17.3 mph N/A   Clear
12:15 PM 71.6 °F 57.2 °F 60% 29.99 in 10.0 mi SE 10.4 mph 18.4 mph N/A   Clear
12:35 PM 73.4 °F 57.2 °F 57% 29.99 in 10.0 mi SSE 10.4 mph 20.7 mph N/A   Clear
12:55 PM 75.2 °F 57.2 °F 53% 29.98 in 10.0 mi SE 15.0 mph 20.7 mph N/A   Clear
1:15 PM 75.2 °F 57.2 °F 53% 29.98 in 10.0 mi SSE 13.8 mph - N/A   Clear
1:35 PM 77.0 °F 59.0 °F 54% 29.97 in 10.0 mi South 15.0 mph - N/A   Clear
1:55 PM 77.0 °F 59.0 °F 54% 29.97 in 10.0 mi SSE 12.7 mph 18.4 mph N/A   Clear
2:15 PM 77.0 °F 59.0 °F 54% 29.96 in 10.0 mi SSE 11.5 mph 25.3 mph N/A   Clear
2:35 PM 77.0 °F 59.0 °F 54% 29.96 in 10.0 mi SSE 10.4 mph 19.6 mph N/A   Clear
2:55 PM 78.8 °F 59.0 °F 51% 29.96 in 10.0 mi SSE 11.5 mph 20.7 mph N/A   Partly Cloudy
3:15 PM 78.8 °F 59.0 °F 51% 29.95 in 10.0 mi SSE 11.5 mph 19.6 mph N/A   Partly Cloudy
3:35 PM 78.8 °F 59.0 °F 51% 29.95 in 10.0 mi SSE 9.2 mph 19.6 mph N/A   Clear
3:55 PM 78.8 °F 59.0 °F 51% 29.95 in 10.0 mi South 10.4 mph 18.4 mph N/A   Partly Cloudy
4:15 PM 78.8 °F 59.0 °F 51% 29.95 in 10.0 mi SE 11.5 mph 17.3 mph N/A   Clear
4:35 PM 78.8 °F 59.0 °F 51% 29.94 in 10.0 mi SSE 10.4 mph 16.1 mph N/A   Clear
4:55 PM 77.0 °F 59.0 °F 54% 29.95 in 10.0 mi SE 11.5 mph 19.6 mph N/A   Clear
5:15 PM 77.0 °F 59.0 °F 54% 29.95 in 10.0 mi SE 11.5 mph 18.4 mph N/A   Clear
5:35 PM 77.0 °F 59.0 °F 54% 29.95 in 10.0 mi SE 12.7 mph - N/A   Clear
5:55 PM 75.2 °F 60.8 °F 61% 29.96 in 10.0 mi SE 6.9 mph 13.8 mph N/A   Clear
6:15 PM 73.4 °F 60.8 °F 65% 29.95 in 10.0 mi ESE 8.1 mph - N/A   Clear
6:35 PM 71.6 °F 60.8 °F 69% 29.95 in 10.0 mi SE 8.1 mph - N/A   Clear
6:55 PM 71.6 °F 59.0 °F 64% 29.96 in 10.0 mi ESE 6.9 mph 13.8 mph N/A   Clear
7:15 PM 69.8 °F 59.0 °F 68% 29.96 in 10.0 mi ESE 6.9 mph - N/A   Clear
7:35 PM 68.0 °F 59.0 °F 73% 29.95 in 10.0 mi SE 9.2 mph - N/A   Scattered Clouds
7:55 PM 68.0 °F 59.0 °F 73% 29.96 in 10.0 mi SE 9.2 mph - N/A   Mostly Cloudy
8:15 PM 68.0 °F 59.0 °F 73% 29.96 in 10.0 mi SE 9.2 mph 15.0 mph N/A   Mostly Cloudy
8:35 PM 68.0 °F 57.2 °F 68% 29.97 in 10.0 mi SE 10.4 mph - N/A   Scattered Clouds
8:55 PM 68.0 °F 57.2 °F 68% 29.97 in 10.0 mi SE 9.2 mph - N/A   Scattered Clouds
9:15 PM 66.2 °F 57.2 °F 73% 29.97 in 10.0 mi SE 10.4 mph 16.1 mph N/A   Scattered Clouds
9:35 PM 66.2 °F 57.2 °F 73% 29.97 in 10.0 mi SE 10.4 mph 17.3 mph N/A   Mostly Cloudy
9:55 PM 66.2 °F 57.2 °F 73% 29.98 in 10.0 mi SE 11.5 mph - N/A   Mostly Cloudy
10:15 PM 66.2 °F 57.2 °F 73% 29.98 in 10.0 mi SE 9.2 mph 17.3 mph N/A   Overcast
10:35 PM 64.4 °F 57.2 °F 77% 29.99 in 10.0 mi SE 10.4 mph - N/A   Overcast
10:55 PM 64.4 °F 57.2 °F 77% 29.99 in 10.0 mi SE 9.2 mph 16.1 mph N/A   Overcast
11:15 PM 64.4 °F 57.2 °F 77% 29.99 in 10.0 mi SE 11.5 mph 17.3 mph N/A   Overcast
11:35 PM 64.4 °F 55.4 °F 73% 30.00 in 10.0 mi SE 10.4 mph 17.3 mph N/A   Overcast
11:55 PM 64.4 °F 55.4 °F 73% 30.00 in 10.0 mi SSE 9.2 mph 16.1 mph N/A   Overcast